Estherville, IA

4:36 PM CST on November 15, 2019 (GMT -0600)
Estherville Municipal

Weather History for KEST - October, 2019

Change the Weather History Date:

Monday, October 21, 2019

  Actual Average Record
Temperature  
Mean Temperature 47 °F 46 °F  
Max Temperature 53 °F 57 °F 84 °F (1978)
Min Temperature 40 °F 34 °F 20 °F (1960)
Degree Days  
Heating Degree Days 18 19  
Month to date heating degree days 376 321  
Since 1 July heating degree days 503 529  
Cooling Degree Days 0 0  
Month to date cooling degree days 0 4  
Year to date cooling degree days 529 591  
Moisture  
Dew Point 44 °F    
Average Humidity 89    
Maximum Humidity 100    
Minimum Humidity 77    
Precipitation  
Precipitation 0.83 in 0.05 in 0.85 in (1963)
Month to date precipitation 4.04 1.71  
Sea Level Pressure  
Sea Level Pressure 29.32 in    
Wind  
Wind Speed 15 mph (WNW)    
Max Wind Speed 36 mph    
Max Gust Speed 60 mph    
Visibility 8 miles    
Events Rain    
T = Trace of Precipitation, MM = Missing Value Source: NWS Daily Summary

Daily Weather History Graph

Daily Weather History Graph

Search for Another Location

Airport or City:

Astronomy

Oct. 21, 2019 Rise Set
Actual Time 7:40 AM CDT 6:26 PM CDT
Civil Twilight 7:11 AM CDT 6:55 PM CDT
Nautical Twilight 6:37 AM CDT 7:28 PM CDT
Astronomical Twilight 6:04 AM CDT 8:01 PM CDT
Moon No Moon Rise 3:04 PM CDT (10/21)
Length of Visible Light 11h 44m
Length of Day
10h 46m
Waning Gibbous, 48% of the Moon is Illuminated
Oct 21
Waning Gibbous
Oct 27
New
Nov 4
First Quarter
Nov 12
Full
Nov 19
Last Quarter

Hourly Weather History & Observations

Time (CDT) Temp. Windchill Dew Point Humidity Pressure Visibility Wind Dir Wind Speed Gust Speed Precip Events Conditions
12:52 AM 48.0 °F - 44.1 °F 86% 29.59 in 10.0 mi ESE 13.8 mph - 0.01 in Rain Light Rain
1:52 AM 48.0 °F - 45.0 °F 89% 29.55 in 10.0 mi ESE 11.5 mph - 0.00 in   Overcast
2:20 AM 48.9 °F - 46.0 °F 90% 29.53 in 10.0 mi ESE 15.0 mph - N/A   Overcast
2:41 AM 48.9 °F - 46.0 °F 90% 29.50 in 10.0 mi ESE 18.4 mph 27.6 mph N/A   Overcast
2:52 AM 48.9 °F - 46.9 °F 93% 29.47 in 10.0 mi ESE 19.6 mph 26.5 mph N/A   Overcast
3:23 AM 48.9 °F - 48.0 °F 97% 29.47 in 10.0 mi ESE 17.3 mph 24.2 mph N/A   Overcast
3:52 AM 50.0 °F - 48.0 °F 93% 29.44 in 10.0 mi SE 15.0 mph 27.6 mph N/A   Overcast
4:52 AM 48.9 °F - 48.0 °F 97% 29.42 in 10.0 mi SE 9.2 mph - 0.00 in   Overcast
5:25 AM 48.9 °F - 48.0 °F 97% 29.40 in 5.0 mi ESE 5.8 mph - 0.03 in Rain Light Rain
5:52 AM 48.9 °F - 48.0 °F 97% 29.37 in 4.0 mi NE 8.1 mph - 0.09 in Rain Light Rain
6:07 AM 48.9 °F - 48.0 °F 97% 29.36 in 4.0 mi ENE 8.1 mph - 0.03 in Rain Rain
6:50 AM 48.9 °F - 48.0 °F 97% 29.35 in 2.5 mi Variable 5.8 mph - 0.15 in Rain Heavy Rain
7:09 AM 48.9 °F - 48.9 °F 100% 29.35 in 1.5 mi West 4.6 mph - 0.12 in Rain Heavy Rain
7:24 AM 48.9 °F - 48.0 °F 97% 29.33 in 2.5 mi Variable 4.6 mph - 0.18 in Rain Rain
7:32 AM 48.9 °F - 48.9 °F 100% 29.33 in 3.0 mi North - - 0.20 in Rain Rain
7:52 AM 48.0 °F - 48.0 °F 100% 29.30 in 5.0 mi NNW 11.5 mph 17.3 mph 0.24 in Rain Light Rain
8:00 AM 48.0 °F - 48.0 °F 100% 29.30 in 6.0 mi North 10.4 mph - 0.01 in Rain Light Rain
8:52 AM 48.0 °F - 46.9 °F 96% 29.29 in 10.0 mi North 9.2 mph - 0.01 in   Overcast
9:25 AM 48.0 °F - 46.9 °F 96% 29.28 in 10.0 mi NNW 6.9 mph - N/A   Mostly Cloudy
9:52 AM 46.9 °F - 46.9 °F 100% 29.29 in 10.0 mi NNW 5.8 mph - N/A   Overcast
10:52 AM 48.0 °F - 46.9 °F 96% 29.26 in 10.0 mi NW 9.2 mph - N/A   Overcast
11:40 AM 48.9 °F - 46.0 °F 90% 29.23 in 10.0 mi NW 9.2 mph - N/A   Overcast
11:45 AM 48.9 °F - 46.9 °F 93% 29.23 in 10.0 mi WNW 8.1 mph - N/A   Overcast
11:52 AM 50.0 °F - 46.9 °F 89% 29.22 in 10.0 mi NW 11.5 mph - N/A   Overcast
12:11 PM 51.1 °F - 46.0 °F 83% 29.21 in 10.0 mi NW 10.4 mph - N/A   Mostly Cloudy
12:52 PM 52.0 °F - 44.1 °F 74% 29.21 in 10.0 mi WSW 4.6 mph - N/A   Overcast
1:52 PM 48.9 °F - 46.0 °F 90% 29.20 in 7.0 mi WSW 12.7 mph 19.6 mph 0.02 in Rain Light Rain
2:04 PM 48.9 °F - 46.0 °F 90% 29.19 in 8.0 mi SW 12.7 mph - 0.01 in Rain Light Rain
2:52 PM 48.0 °F - 46.0 °F 93% 29.19 in 10.0 mi WSW 16.1 mph 33.4 mph 0.02 in Rain Light Rain
3:25 PM 46.0 °F 39.9 °F 43.0 °F 89% 29.20 in 9.0 mi WNW 13.8 mph 26.5 mph 0.03 in Rain Light Rain
3:42 PM 44.1 °F 37.7 °F 42.1 °F 93% 29.21 in 7.0 mi West 12.7 mph 28.8 mph 0.05 in Rain Light Rain
3:52 PM 43.0 °F 37.2 °F 39.9 °F 89% 29.23 in 6.0 mi West 10.4 mph 24.2 mph 0.07 in Rain Rain
4:09 PM 43.0 °F 36.4 °F 41.0 °F 93% 29.22 in 7.0 mi West 12.7 mph 20.7 mph 0.03 in Rain Light Rain
4:52 PM 42.1 °F 33.1 °F 39.9 °F 92% 29.24 in 9.0 mi West 20.7 mph 31.1 mph 0.05 in Rain Light Rain
4:59 PM 42.1 °F 33.6 °F 39.9 °F 92% 29.23 in 9.0 mi West 18.4 mph 31.1 mph 0.00 in Rain Light Rain
5:25 PM 41.0 °F 31.9 °F 37.9 °F 89% 29.24 in 8.0 mi West 19.6 mph 32.2 mph 0.01 in Rain Light Rain
5:52 PM 39.9 °F 32.1 °F 37.9 °F 93% 29.27 in 9.0 mi West 13.8 mph 29.9 mph 0.02 in Rain Light Rain
6:52 PM 39.9 °F 31.1 °F 37.9 °F 93% 29.29 in 9.0 mi WNW 17.3 mph 34.5 mph 0.04 in Rain Light Rain
7:52 PM 41.0 °F 33.5 °F 39.0 °F 93% 29.30 in 10.0 mi WNW 13.8 mph 39.1 mph 0.02 in Rain Light Rain
8:52 PM 41.0 °F 30.7 °F 39.0 °F 93% 29.31 in 10.0 mi NW 25.3 mph 38.0 mph 0.03 in Rain Light Rain
9:52 PM 41.0 °F 31.4 °F 39.0 °F 93% 29.34 in 9.0 mi NW 21.9 mph 47.2 mph 0.01 in Rain Light Rain
10:27 PM 42.1 °F 31.0 °F 39.9 °F 92% 29.34 in 6.0 mi NW 32.2 mph 50.6 mph 0.03 in Rain Light Rain
10:45 PM 42.1 °F 31.5 °F 39.0 °F 89% 29.35 in 8.0 mi NW 28.8 mph 47.2 mph 0.04 in Rain Light Rain
10:52 PM 42.1 °F 32.1 °F 39.0 °F 89% 29.37 in 7.0 mi NW 25.3 mph 46.0 mph 0.04 in Rain Light Rain
11:52 PM 42.1 °F 31.7 °F 39.0 °F 89% 29.41 in 10.0 mi NW 27.6 mph 56.4 mph 0.02 in   Overcast